Wind_Speed
19 17 15 13 13 12 9 8 9 10 12 9 8 8 9 11 11 10 11 11 12 13 14 14 15 14 14 14 14 14 14 14 14 14 14 12 10 10 10 9 8 8 7 6
21 19 18 17 16 15 13 12 11 11 14 11 10 9 9 11 11 12 12 11 12 12 13 14 14 14 14 14 14 14 14 14 14 14 14 13 11 10 10 9 8 8 7 6
22 20 20 20 18 17 16 15 13 13 14 12 11 11 13 12 12 13 13 13 12 12 12 13 14 14 14 14 14 14 14 14 14 14 13 13 12 10 10 10 9 8 8 7
25 24 22 21 20 19 17 16 17 15 14 12 11 13 17 15 14 14 14 13 13 13 13 13 12 13 14 14 14 14 15 15 14 13 12 12 12 11 10 10 10 9 9 8
25 25 24 22 21 20 18 18 18 17 15 14 13 14 16 16 15 15 14 13 14 13 13 12 12 13 14 14 13 14 15 14 13 13 12 12 12 11 10 10 10 9 9 8
26 26 25 24 23 22 19 19 18 17 16 17 16 15 16 17 17 17 16 14 14 14 13 12 12 12 13 13 14 14 14 14 13 12 12 11 11 11 10 10 9 9 9 8
28 27 26 25 23 22 21 19 17 16 17 17 15 17 19 19 19 18 17 15 15 14 14 13 12 12 13 13 14 14 14 13 12 11 11 11 11 10 10 10 10 9 9 8
28 28 27 26 24 23 22 21 19 17 15 15 16 19 19 20 19 19 18 17 16 16 14 14 13 13 13 13 13 14 14 12 11 11 11 10 10 10 10 10 10 10 9 8
26 26 27 27 25 24 24 22 20 18 16 16 15 18 20 21 20 20 19 18 17 16 16 14 13 13 13 13 13 14 13 12 11 11 10 10 10 10 10 10 10 10 9 10
27 26 26 26 26 27 25 22 21 22 21 19 18 19 21 21 19 19 19 17 16 16 15 15 14 13 13 12 13 13 13 12 11 11 11 10 10 11 10 11 11 11 11 11
28 27 27 27 27 26 26 25 24 23 22 20 19 20 20 22 21 21 20 18 17 16 15 15 14 13 13 12 12 12 12 12 11 12 12 11 11 11 11 11 11 11 11 11
30 29 28 27 26 26 26 25 25 26 25 24 22 22 21 22 22 21 20 20 18 17 16 15 14 14 13 13 13 12 13 13 13 13 12 11 12 12 12 12 12 12 11 11
32 32 30 28 27 27 28 27 26 26 26 25 23 24 24 24 22 21 20 19 19 18 17 16 15 15 14 14 14 13 13 13 13 13 13 13 13 13 13 13 13 13 12 13
35 35 32 29 26 25 26 27 27 27 27 25 24 25 26 27 25 23 21 20 21 20 20 18 18 17 15 15 14 14 14 15 15 15 14 14 14 14 14 13 13 13 13 13
36 36 34 32 28 24 24 24 25 27 27 26 23 24 27 29 28 25 25 24 23 23 22 21 19 18 17 16 16 16 16 16 17 16 15 15 15 15 14 14 14 14 13 13
36 36 34 33 30 28 26 25 24 25 26 26 26 26 28 30 28 26 26 25 25 24 23 22 21 19 18 18 17 17 17 17 17 17 16 16 16 16 15 15 16 15 15 15
36 36 35 34 32 30 30 28 26 26 25 26 27 29 30 30 28 26 26 26 25 24 23 23 22 21 20 19 18 18 18 19 18 18 17 17 18 17 17 16 17 17 17 17
34 35 34 32 30 31 31 28 28 27 28 29 28 29 28 30 29 28 27 26 25 24 23 22 22 21 20 20 20 19 19 19 20 19 19 19 19 18 18 18 18 18 18 18
35 35 34 32 30 31 30 30 29 29 30 30 29 30 31 28 27 28 27 26 27 26 25 23 21 20 21 21 20 20 21 21 21 21 21 21 20 19 19 19 19 20 19 19
34 34 34 33 31 30 30 29 29 29 31 30 31 31 31 29 28 28 27 27 27 27 26 25 25 24 23 23 22 22 23 23 22 22 22 21 21 21 20 20 20 21 21 20
33 32 33 33 31 29 29 29 30 31 31 31 31 31 32 31 30 31 29 28 27 28 28 28 26 25 25 25 25 25 24 24 23 23 23 22 22 21 21 21 22 21 22 21
33 33 34 34 32 32 32 31 31 31 32 31 30 31 32 31 31 31 30 28 28 28 28 28 27 27 26 26 26 26 25 25 24 24 24 23 23 23 23 23 22 22 21 21
31 34 33 34 34 34 34 33 32 31 30 31 31 31 31 31 31 31 32 30 29 28 28 28 28 28 27 27 26 26 26 26 25 24 24 23 24 23 23 23 22 22 22 22
31 33 34 35 38 36 35 34 32 32 31 30 31 32 31 30 30 31 31 31 30 30 30 30 30 29 28 27 27 26 26 26 25 25 25 24 24 23 23 23 23 22 22 23
33 34 36 37 37 36 37 35 34 34 34 33 33 32 31 31 30 29 29 30 30 31 30 29 29 29 28 28 27 27 27 27 27 26 25 25 24 24 24 24 23 24 24 24
34 35 37 39 38 38 38 37 35 35 35 34 34 33 33 33 32 32 31 31 32 32 31 30 29 29 29 28 26 27 27 27 27 27 27 26 26 25 25 25 25 25 24 24
Wind_Direction
218 218 215 217 224 221 213 221 229 243 260 259 255 250 276 298 311 318 327 337 344 350 357 360 1 4 5 4 4 4 5 7 7 8 7 8 9 10 13 14 16 19 19 16
221 223 221 220 224 222 218 217 221 244 259 254 257 251 258 284 299 309 315 323 333 341 348 352 356 358 0 0 1 0 358 1 2 3 4 6 6 8 9 11 13 14 14 13
224 226 227 225 224 226 224 220 218 229 251 257 261 264 264 275 290 299 307 313 320 328 339 342 346 350 353 355 356 356 355 355 356 357 359 1 359 1 4 4 5 7 7 5
226 225 225 227 228 228 230 227 227 228 238 249 255 260 268 273 281 294 301 304 311 317 326 332 337 341 344 349 351 352 352 352 352 351 353 356 353 358 1 1 357 356 355 353
228 229 227 227 230 230 228 229 230 231 235 240 244 253 265 274 278 286 289 292 301 310 316 322 326 334 339 341 344 346 347 349 350 350 351 354 353 355 357 357 354 353 353 353
227 230 231 231 230 231 228 230 234 234 235 241 239 242 254 263 269 277 285 292 295 301 306 312 315 323 331 335 338 340 342 342 345 348 349 351 350 351 352 355 354 351 350 349
227 231 233 231 230 231 227 229 233 235 237 242 243 243 245 253 266 274 277 284 292 297 301 304 309 315 321 328 333 337 338 338 342 345 346 346 345 346 348 349 349 348 346 344
231 234 236 234 231 232 229 227 228 232 242 248 246 247 248 258 264 271 275 277 286 291 293 295 300 305 311 319 326 330 333 334 337 340 342 342 340 341 342 344 345 343 340 337
230 236 238 237 232 231 229 227 227 233 236 242 249 256 258 257 261 267 275 275 282 288 289 291 295 297 302 310 318 323 326 329 333 335 336 335 334 334 336 337 337 337 335 331
225 230 234 237 233 230 230 229 223 225 231 236 242 254 261 264 261 267 275 279 277 280 284 292 297 297 297 302 310 317 320 324 326 328 329 328 327 329 330 331 331 330 329 326
222 226 229 232 233 230 230 228 224 226 228 233 241 243 254 262 265 266 271 277 276 279 282 286 291 295 297 300 305 311 315 315 320 323 322 322 321 320 320 323 327 328 327 328
219 223 227 231 233 231 231 230 228 227 228 226 232 243 247 256 263 264 266 271 272 272 278 280 284 290 294 296 300 305 308 311 314 316 319 316 318 323 322 323 324 326 326 326
218 220 222 226 231 231 230 228 225 229 231 231 233 244 246 251 259 261 263 265 269 269 271 274 278 284 290 293 296 301 305 306 306 310 313 313 314 317 319 319 318 318 322 324
219 221 220 223 229 236 238 234 228 227 231 233 234 242 250 252 256 258 259 260 264 266 269 273 275 280 284 286 290 295 299 302 302 305 308 311 313 314 314 314 314 315 317 320
219 221 221 220 220 226 237 240 234 231 231 231 235 242 249 257 258 258 259 261 263 267 270 271 273 276 278 281 284 289 293 296 298 300 304 306 308 310 311 309 309 311 311 313
221 222 220 222 222 224 226 231 234 235 233 232 232 236 241 249 256 256 255 258 260 262 266 267 268 270 273 276 280 284 288 293 295 296 298 300 303 305 306 307 307 306 306 308
224 224 222 224 224 225 227 228 230 232 234 235 235 238 241 244 252 257 256 256 256 260 263 262 264 266 270 273 275 278 282 286 290 294 294 293 295 298 301 303 303 304 306 305
223 224 224 224 224 228 230 232 232 230 230 232 235 239 243 247 252 256 256 255 256 260 261 259 260 260 266 269 273 275 279 284 289 292 292 291 290 292 295 298 300 300 302 302
223 224 224 223 226 230 229 231 230 228 229 230 231 235 241 242 246 251 254 255 256 256 257 258 259 261 264 267 271 275 278 283 287 290 290 289 288 288 291 294 297 298 299 299
225 225 224 222 222 226 229 231 233 233 233 232 232 236 240 241 242 248 251 254 256 255 255 257 259 262 265 267 270 274 278 281 284 286 287 285 284 285 287 291 295 295 296 297
225 224 223 221 222 226 228 228 230 233 235 235 234 237 241 244 247 248 250 253 255 255 255 255 257 260 262 265 269 271 275 278 281 282 283 280 280 282 285 288 290 291 292 293
226 224 224 221 220 225 228 229 230 233 235 235 236 239 243 245 247 249 250 253 253 253 253 254 257 261 262 265 267 269 272 274 277 278 278 277 277 281 284 286 287 288 290 291
225 224 221 219 220 225 228 233 235 237 239 238 239 243 246 246 247 249 250 252 252 253 255 257 258 261 263 265 267 268 270 272 274 276 277 278 279 281 284 287 288 288 289 291
222 222 222 223 224 226 230 233 236 238 239 237 241 245 246 246 247 248 250 250 250 251 255 258 259 259 261 264 266 268 271 272 275 277 277 278 280 281 283 285 288 288 290 291
217 218 222 225 225 224 230 233 235 237 239 240 242 245 247 249 250 251 251 250 250 251 253 255 258 259 261 262 263 265 268 270 273 275 276 278 280 281 282 284 286 288 290 291
220 222 225 226 227 229 232 235 236 239 240 241 243 245 247 248 250 252 252 251 251 252 252 255 258 261 263 264 265 265 267 269 271 274 275 277 278 280 282 284 285 287 289 290
Height
5922 5926 5928 5932 5935 5937 5940 5943 5945 5946 5945 5945 5945 5945 5944 5942 5941 5940 5939 5937 5936 5934 5933 5931 5930 5928 5926 5925 5923 5921 5920 5918 5916 5914 5912 5911 5909 5908 5906 5905 5904 5903 5902 5902
5920 5923 5926 5929 5932 5935 5938 5941 5943 5944 5943 5943 5943 5943 5943 5942 5941 5940 5938 5937 5936 5934 5933 5932 5930 5928 5927 5925 5923 5922 5920 5918 5917 5915 5913 5911 5910 5908 5907 5906 5904 5903 5903 5902
5916 5921 5923 5926 5929 5932 5935 5938 5941 5943 5942 5941 5942 5942 5941 5941 5940 5939 5938 5936 5935 5934 5933 5932 5930 5929 5927 5925 5924 5922 5920 5918 5917 5915 5913 5912 5910 5909 5908 5906 5905 5904 5903 5902
5912 5915 5919 5922 5925 5928 5931 5935 5937 5939 5940 5940 5942 5941 5939 5938 5938 5938 5937 5935 5934 5933 5932 5931 5930 5929 5927 5925 5924 5922 5920 5918 5916 5914 5913 5912 5910 5909 5908 5906 5905 5904 5903 5902
5907 5911 5914 5918 5922 5925 5928 5931 5932 5934 5936 5938 5939 5940 5939 5936 5935 5936 5935 5934 5933 5932 5931 5930 5929 5928 5926 5925 5923 5921 5919 5918 5916 5914 5913 5911 5910 5909 5908 5906 5905 5904 5903 5902
5903 5906 5909 5913 5917 5920 5923 5926 5928 5930 5933 5934 5936 5938 5937 5935 5934 5934 5932 5932 5932 5931 5930 5929 5928 5927 5926 5924 5923 5921 5919 5917 5915 5914 5912 5911 5910 5909 5907 5906 5905 5904 5903 5902
5898 5901 5904 5909 5912 5916 5919 5923 5925 5927 5929 5931 5933 5934 5934 5932 5933 5932 5931 5930 5929 5929 5928 5928 5927 5926 5925 5923 5922 5920 5918 5916 5915 5913 5912 5911 5910 5909 5907 5906 5905 5904 5903 5902
5893 5897 5900 5904 5908 5912 5915 5919 5922 5925 5928 5929 5929 5929 5930 5930 5930 5929 5929 5928 5927 5927 5926 5926 5925 5925 5923 5922 5921 5919 5917 5916 5914 5913 5912 5911 5910 5909 5907 5906 5905 5903 5903 5902
5890 5893 5896 5899 5903 5907 5910 5913 5919 5922 5924 5926 5927 5926 5926 5926 5927 5927 5925 5924 5925 5925 5924 5923 5923 5923 5922 5921 5920 5918 5916 5915 5914 5913 5912 5911 5909 5908 5907 5906 5904 5903 5902 5901
5884 5888 5891 5894 5898 5901 5905 5909 5914 5916 5919 5922 5924 5923 5922 5921 5922 5923 5923 5922 5922 5922 5921 5921 5921 5920 5920 5919 5918 5917 5915 5914 5913 5912 5911 5910 5908 5908 5907 5905 5904 5902 5901 5900
5878 5882 5886 5888 5891 5896 5900 5904 5908 5912 5915 5918 5920 5921 5919 5918 5918 5919 5919 5919 5918 5918 5919 5919 5918 5918 5917 5916 5916 5915 5915 5913 5912 5911 5910 5909 5908 5907 5905 5904 5903 5902 5900 5899
5871 5876 5880 5883 5887 5891 5895 5898 5903 5906 5908 5911 5914 5916 5913 5913 5914 5915 5916 5915 5915 5915 5915 5915 5915 5916 5915 5914 5914 5914 5913 5912 5911 5910 5908 5907 5906 5905 5904 5903 5902 5901 5899 5898
5864 5869 5874 5878 5883 5885 5888 5892 5896 5900 5903 5905 5909 5911 5908 5908 5909 5909 5910 5910 5912 5912 5911 5912 5912 5913 5913 5912 5912 5911 5911 5910 5909 5908 5907 5906 5905 5904 5902 5901 5900 5899 5898 5896
5857 5861 5867 5873 5877 5880 5882 5886 5890 5894 5897 5900 5903 5904 5903 5903 5904 5905 5905 5906 5907 5907 5907 5908 5909 5909 5909 5909 5909 5909 5908 5907 5907 5906 5905 5904 5903 5902 5901 5899 5898 5897 5896 5894
5849 5855 5860 5866 5871 5874 5877 5880 5884 5887 5891 5895 5897 5898 5898 5898 5899 5901 5901 5902 5902 5903 5904 5905 5905 5905 5905 5906 5906 5905 5905 5904 5903 5902 5902 5901 5900 5899 5898 5897 5896 5895 5894 5892
5842 5848 5853 5858 5863 5867 5871 5874 5878 5882 5885 5888 5891 5892 5892 5891 5892 5894 5895 5896 5896 5897 5899 5900 5900 5901 5901 5901 5902 5902 5901 5901 5900 5900 5899 5898 5897 5897 5896 5894 5893 5892 5891 5890
5836 5842 5847 5852 5857 5860 5864 5868 5872 5876 5879 5882 5883 5884 5883 5884 5886 5888 5889 5890 5890 5891 5892 5893 5895 5896 5897 5897 5897 5897 5898 5897 5897 5896 5895 5895 5894 5893 5892 5892 5890 5889 5888 5887
5830 5834 5840 5845 5850 5853 5859 5862 5866 5869 5871 5874 5876 5876 5877 5879 5880 5882 5883 5884 5885 5886 5887 5887 5887 5889 5891 5893 5893 5893 5893 5893 5893 5892 5891 5891 5890 5890 5889 5888 5887 5886 5884 5883
5823 5828 5833 5839 5843 5847 5852 5855 5857 5861 5862 5866 5868 5869 5870 5872 5872 5875 5877 5879 5881 5881 5882 5883 5881 5884 5887 5888 5888 5888 5888 5888 5888 5887 5887 5886 5885 5885 5884 5884 5883 5881 5880 5879
5817 5822 5827 5831 5836 5840 5845 5848 5851 5855 5856 5858 5860 5862 5864 5865 5868 5869 5871 5873 5874 5875 5877 5878 5878 5880 5882 5882 5883 5883 5883 5883 5883 5882 5882 5881 5880 5880 5879 5879 5878 5877 5875 5874
5810 5815 5819 5824 5829 5833 5837 5839 5843 5848 5849 5850 5852 5855 5857 5859 5861 5864 5865 5867 5868 5869 5870 5872 5872 5874 5876 5877 5877 5877 5878 5878 5878 5877 5876 5876 5875 5875 5874 5874 5873 5872 5870 5869
5804 5809 5813 5818 5822 5828 5830 5833 5836 5838 5841 5843 5846 5848 5850 5852 5854 5856 5859 5861 5863 5864 5863 5864 5868 5869 5870 5871 5871 5872 5872 5872 5872 5871 5870 5870 5870 5869 5869 5868 5867 5866 5865 5864
5797 5802 5806 5810 5815 5819 5822 5825 5827 5830 5833 5836 5839 5841 5843 5845 5848 5849 5852 5854 5856 5857 5857 5859 5861 5863 5864 5864 5865 5866 5866 5866 5866 5865 5864 5864 5864 5864 5863 5862 5861 5860 5859 5858
5790 5794 5798 5802 5806 5811 5814 5817 5820 5823 5826 5828 5832 5834 5836 5838 5840 5842 5845 5847 5849 5851 5852 5853 5854 5856 5857 5858 5858 5859 5859 5859 5859 5859 5859 5859 5858 5858 5857 5856 5855 5854 5853 5852
5781 5786 5791 5794 5798 5803 5807 5809 5812 5816 5819 5822 5825 5827 5829 5831 5833 5835 5837 5840 5842 5844 5845 5846 5848 5848 5849 5850 5850 5852 5852 5853 5853 5852 5852 5852 5852 5851 5851 5850 5850 5848 5848 5846
5776 5780 5783 5787 5791 5795 5799 5803 5805 5808 5811 5814 5817 5820 5822 5824 5826 5828 5830 5833 5835 5837 5838 5840 5841 5842 5843 5842 5843 5844 5845 5846 5846 5846 5845 5845 5845 5845 5844 5844 5843 5842 5841 5840